TimeCDT,TemperatureF,Dew PointF,Humidity,Sea Level PressureIn,VisibilityMPH,Wind Direction,Wind SpeedMPH,Gust SpeedMPH,PrecipitationIn,Events,Conditions,WindDirDegrees,DateUTC
12:53 AM,63.0,55.9,78,29.98,10.0,Calm,Calm,-,N/A,,Clear,0,2012-10-16 05:53:00
1:53 AM,63.0,55.0,75,29.96,10.0,Calm,Calm,-,N/A,,Clear,0,2012-10-16 06:53:00
2:53 AM,62.1,55.0,78,29.94,10.0,Calm,Calm,-,N/A,,Clear,0,2012-10-16 07:53:00
3:53 AM,63.0,55.0,75,29.93,10.0,Calm,Calm,-,N/A,,Clear,0,2012-10-16 08:53:00
4:53 AM,61.0,55.9,83,29.93,10.0,Calm,Calm,-,N/A,,Clear,0,2012-10-16 09:53:00
5:53 AM,61.0,55.9,83,29.93,10.0,Calm,Calm,-,N/A,,Clear,0,2012-10-16 10:53:00
6:53 AM,62.6,55.4,77,29.93,10.0,Calm,Calm,-,N/A,,Clear,0,2012-10-16 11:53:00
7:53 AM,63.0,55.9,78,29.92,10.0,Calm,Calm,-,N/A,,Clear,0,2012-10-16 12:53:00
8:53 AM,64.0,55.9,75,29.94,10.0,South,3.5,-,N/A,,Clear,180,2012-10-16 13:53:00
9:53 AM,66.9,57.0,70,29.95,10.0,ESE,3.5,-,N/A,,Overcast,120,2012-10-16 14:53:00
10:53 AM,69.1,57.9,68,29.94,10.0,SSE,4.6,-,N/A,,Overcast,150,2012-10-16 15:53:00
11:53 AM,66.9,61.0,81,29.92,8.0,South,10.4,-,0.01,Rain,Light Rain,170,2012-10-16 16:53:00
12:53 PM,68.0,62.1,81,29.92,10.0,SSE,4.6,-,0.01,Rain,Light Rain,160,2012-10-16 17:53:00
1:53 PM,66.0,64.0,93,29.89,5.0,South,9.2,-,0.07,Rain,Rain,180,2012-10-16 18:53:00
2:53 PM,66.0,64.0,93,29.86,6.0,South,5.8,-,0.08,Rain,Rain,180,2012-10-16 19:53:00
3:53 PM,66.9,64.0,90,29.84,7.0,South,12.7,18.4,0.04,Rain,Light Rain,180,2012-10-16 20:53:00
4:53 PM,66.9,64.9,93,29.84,8.0,South,5.8,-,0.03,Rain,Light Rain,180,2012-10-16 21:53:00
5:53 PM,66.0,64.0,93,29.83,8.0,South,6.9,-,0.05,Rain,Light Rain,180,2012-10-16 22:53:00
6:53 PM,64.9,63.0,93,29.81,7.0,SSE,12.7,-,0.13,Rain,Rain,150,2012-10-16 23:53:00
7:53 PM,64.9,63.0,93,29.81,10.0,South,10.4,-,0.02,,Mostly Cloudy,170,2012-10-17 00:53:00
8:19 PM,64.4,62.6,94,29.82,10.0,SSE,15.0,-,N/A,,Overcast,150,2012-10-17 01:19:00
8:53 PM,63.0,62.1,97,29.81,10.0,SSE,9.2,-,N/A,,Overcast,160,2012-10-17 01:53:00
9:33 PM,62.6,62.6,100,29.81,10.0,SSE,8.1,-,N/A,,Scattered Clouds,160,2012-10-17 02:33:00
9:53 PM,63.0,62.1,97,29.80,10.0,SSE,8.1,-,N/A,,Clear,160,2012-10-17 02:53:00
10:39 PM,62.6,62.6,100,29.80,10.0,South,10.4,-,N/A,,Scattered Clouds,170,2012-10-17 03:39:00
10:53 PM,63.0,62.1,97,29.78,10.0,South,10.4,-,N/A,,Scattered Clouds,170,2012-10-17 03:53:00
11:53 PM,63.0,62.1,97,29.78,10.0,South,10.4,-,N/A,,Clear,170,2012-10-17 04:53:00